Regional Weather Roundup
Issued by NWS

Home | Current Version | Previous Version | Graphics & Text | Print | Product List | Glossary On
Versions: 1 2 3 4 5 6 7 8 9 10 11 12 13 14 15 16 17 18 19 20 21 22 23 24 25 26 27 28 29 30 31 32 33 34 35 36 37 38 39 40 41 42 43 44 45 46 47 48 49 50
000
ASUS43 KFSD 230310
RWRSD

WEATHER ROUNDUP FOR SOUTH DAKOTA
NATIONAL WEATHER SERVICE SIOUX FALLS SD
1000 PM CDT TUE APR 22 2014

NOTE: "FAIR" INDICATES FEW OR NO CLOUDS BELOW 12,000 FEET WITH NO
SIGNIFICANT WEATHER AND/OR OBSTRUCTIONS TO VISIBILITY.


SDZ001>005-009-010-012>017-230400-
NORTHWEST AND NORTH CENTRAL SOUTH DAKOTA

CITY           SKY/WX    TMP DP  RH WIND       PRES   REMARKS
BUFFALO          N/A     57  33  40 E21G29    29.51F
MOBRIDGE       LGT RAIN  56  35  45 SE26G38   29.70F
$$

SDZ012>016-024>037-041>051-057-063-072>074-230400-
SOUTHWEST AND SOUTH CENTRAL SOUTH DAKOTA

CITY           SKY/WX    TMP DP  RH WIND       PRES   REMARKS
RAPID CTY ARPT CLOUDY    63  44  50 S16       29.58F
PIERRE         CLOUDY    62  33  33 SE22G30   29.69S
CUSTER         CLOUDY    58  38  47 SE8       29.70R
ELLSWORTH AFB  CLOUDY    65  44  46 S13       29.58S
PHILIP         CLOUDY    69  46  43 S17G29    29.59F
PINE RIDGE     CLOUDY    62  48  60 SE18      29.63F
SPEARFISH      FAIR      59  43  55 S7        29.59F
WINNER         FAIR      66  32  28 SE21G31   29.76R
$$

SDZ004>011-016>023-039-040-230400-
NORTHEAST SOUTH DAKOTA

CITY           SKY/WX    TMP DP  RH WIND       PRES   REMARKS
ABERDEEN       CLOUDY    55  34  45 SE17      29.87S
WATERTOWN      CLOUDY    55  33  43 SE12G18   29.95R
SISSETON         N/A     53  35  50 SE15      29.96R
$$

SDZ017-020-022-023-036>040-048>070-230400-
SOUTHEAST SOUTH DAKOTA

CITY           SKY/WX    TMP DP  RH WIND       PRES   REMARKS
SIOUX FALLS    MOCLDY    59  33  37 SE14G21   29.95S
HURON          CLOUDY    59  31  34 SE16G25   29.87R
CHAMBERLAIN      N/A     62  33  33 SE23G30   29.79R
MITCHELL         N/A     60  33  36 SE22      29.88R
YANKTON        PTCLDY    57  34  41 E13       29.92S
$$

ABBREVIATIONS USED IN REMARKS
   TC - TEMPERATURE IN CELSIUS
  WCI - WIND CHILL INDEX
   HX - HEAT INDEX
  VSB - VISIBILITY




USA.gov is the U.S. government's official web portal to all federal, state and local government web resources and services.